KB2EAR-13 Weather Reports


time (UTC)temp
C
wind
direction
speed
KPH
gust
KPH
rain 1hr
cm
rain 24hr
cm
rain mn
cm
humidity
%
barometer
mb
20260505180517 27 270 6.4 14.5 0.00 0.00 0.00 44 1010.3
20260505180017 27 270 8.0 22.5 0.00 0.00 0.00 42 1010.3
20260505175517 27 248 4.8 16.1 0.00 0.00 0.00 42 1010.3
20260505175017 27 270 4.8 16.1 0.00 0.00 0.00 44 1010.4
20260505174636 27 248 4.8 17.7 0.00 0.00 0.00 43 1010.4
20260505174517 27 248 4.8 17.7 0.00 0.00 0.00 43 1010.4
20260505174017 27 293 6.4 17.7 0.00 0.00 0.00 43 1010.7
20260505173517 27 270 8.0 25.7 0.00 0.00 0.00 42 1010.5
20260505173017 27 270 8.0 17.7 0.00 0.00 0.00 43 1010.6
20260505172517 27 315 1.6 8.0 0.00 0.00 0.00 45 1010.6
20260505172253 27 248 4.8 17.7 0.00 0.00 0.00 44 1010.7
20260505172017 27 248 4.8 17.7 0.00 0.00 0.00 44 1010.7
20260505171517 26 270 3.2 12.9 0.00 0.00 0.00 46 1010.7
20260505171017 26 248 4.8 11.3 0.00 0.00 0.00 44 1010.8
20260505170517 26 248 4.8 14.5 0.00 0.00 0.00 45 1010.7
20260505170017 26 270 6.4 16.1 0.00 0.00 0.00 45 1010.8
20260505165517 26 270 4.8 14.5 0.00 0.00 0.00 45 1010.7
20260505165017 26 248 4.8 14.5 0.00 0.00 0.00 46 1010.9
20260505164517 26 248 3.2 12.9 0.00 0.00 0.00 47 1010.8
20260505164017 26 270 4.8 11.3 0.00 0.00 0.00 47 1010.9
20260505163517 26 270 4.8 11.3 0.00 0.00 0.00 47 1011.0
20260505163017 26 270 4.8 16.1 0.00 0.00 0.00 47 1011.0
20260505162517 25 248 6.4 16.1 0.00 0.00 0.00 47 1011.1
20260505162017 25 270 6.4 12.9 0.00 0.00 0.00 47 1011.0
20260505161517 25 248 4.8 14.5 0.00 0.00 0.00 46 1011.1
20260505161236 25 270 3.2 8.0 0.00 0.00 0.00 49 1011.0
20260505161017 25 270 3.2 8.0 0.00 0.00 0.00 49 1011.0
20260505160517 25 270 4.8 14.5 0.00 0.00 0.00 48 1011.3
20260505160149 25 270 4.8 17.7 0.00 0.00 0.00 47 1011.5
20260505153227 25 270 4.8 11.3 0.00 0.00 0.00 48 1011.7
20260505153017 25 270 4.8 11.3 0.00 0.00 0.00 48 1011.7
20260505152808 25 248 4.8 12.9 0.00 0.00 0.00 50 1011.7
20260505152517 25 248 4.8 12.9 0.00 0.00 0.00 50 1011.7
20260505152337 25 248 3.2 12.9 0.00 0.00 0.00 48 1011.9
20260505152017 25 248 3.2 12.9 0.00 0.00 0.00 48 1011.9
20260505151517 24 270 6.4 16.1 0.00 0.00 0.00 50 1011.8
20260505151237 24 248 4.8 11.3 0.00 0.00 0.00 50 1011.6
20260505151017 24 248 4.8 11.3 0.00 0.00 0.00 50 1011.6
20260505150736 24 248 4.8 11.3 0.00 0.00 0.00 49 1011.6
20260505150517 24 248 4.8 11.3 0.00 0.00 0.00 49 1011.6
20260505140517 22 270 3.2 9.7 0.00 0.00 0.00 55 1012.3
20260505125017 18 270 4.8 12.9 0.00 0.00 0.00 67 1012.2
20260505124517 18 248 4.8 12.9 0.00 0.00 0.00 68 1012.2
20260505124017 18 270 4.8 12.9 0.00 0.00 0.00 68 1012.2
20260505123516 17 248 1.6 14.5 0.00 0.00 0.00 70 1012.1
20260505123017 17 270 4.8 11.3 0.00 0.00 0.00 71 1012.2
20260505122517 17 248 3.2 14.5 0.00 0.00 0.00 71 1012.2
20260505122017 17 270 3.2 6.4 0.00 0.00 0.00 71 1012.2
20260505121516 17 248 1.6 4.8 0.00 0.00 0.00 72 1012.3
20260505121017 17 248 1.6 6.4 0.00 0.00 0.00 72 1012.3
20260505120517 17 0.0 3.2 0.00 0.00 0.00 73 1012.3
20260505120017 16 248 1.6 4.8 0.00 0.00 0.00 74 1012.2
20260505115517 16 0.0 4.8 0.00 0.00 0.00 75 1012.1
20260505115017 16 0.0 1.6 0.00 0.00 0.00 76 1012.3
20260505114517 16 0.0 3.2 0.00 0.00 0.00 77 1012.1
20260505114200 15 0.0 3.2 0.00 0.00 0.00 78 1012.1
20260505114016 15 0.0 3.2 0.00 0.00 0.00 78 1012.1
20260505113517 15 0.0 0.0 0.00 0.00 0.00 78 1012.1
20260505113017 15 0.0 0.0 0.00 0.00 0.00 79 1012.2
20260505112516 15 0.0 0.0 0.00 0.00 0.00 79 1012.2
20260505112016 15 0.0 0.0 0.00 0.00 0.00 79 1012.2
20260505111517 15 0.0 0.0 0.00 0.00 0.00 78 1012.3
20260505111016 15 0.0 0.0 0.00 0.00 0.00 79 1012.2
20260505110516 14 0.0 0.0 0.00 0.00 0.00 81 1012.2
20260505102119 14 0.0 0.0 0.00 0.00 0.00 80 1012.3
20260505102016 14 0.0 0.0 0.00 0.00 0.00 80 1012.3
20260505101517 14 0.0 0.0 0.00 0.00 0.00 80 1012.1
20260505101017 14 0.0 0.0 0.00 0.00 0.00 80 1012.2
20260505100516 14 0.0 1.6 0.00 0.00 0.00 80 1012.1
20260505100150 13 315 1.6 4.8 0.00 0.00 0.00 80 1012.0
20260505100035 13 0.0 3.2 0.00 0.00 0.00 81 1012.0
20260505095517 13 0.0 3.2 0.00 0.00 0.00 81 1012.0
20260505095016 13 270 1.6 6.4 0.00 0.00 0.00 80 1011.5
20260505094516 13 270 1.6 6.4 0.00 0.00 0.00 80 1011.4
20260505094016 13 270 3.2 6.4 0.00 0.00 0.00 80 1011.2
20260505093516 13 248 1.6 9.7 0.00 0.00 0.00 80 1011.1
20260505093159 13 248 3.2 8.0 0.00 0.00 0.00 79 1011.2
20260505093016 13 248 3.2 8.0 0.00 0.00 0.00 79 1011.2
20260505092736 14 270 1.6 8.0 0.00 0.00 0.00 79 1011.1
20260505092516 14 270 1.6 8.0 0.00 0.00 0.00 79 1011.1
20260505092016 14 248 3.2 9.7 0.00 0.00 0.00 79 1011.0
20260505091516 14 248 1.6 14.5 0.00 0.00 0.00 79 1011.1
20260505091016 14 270 3.2 8.0 0.00 0.00 0.00 79 1011.1
20260505090516 14 270 1.6 4.8 0.00 0.00 0.00 78 1011.1
20260505090017 14 270 3.2 8.0 0.00 0.00 0.00 78 1011.1
20260505085516 14 270 3.2 8.0 0.00 0.00 0.00 78 1011.1
20260505085016 14 270 3.2 4.8 0.00 0.00 0.00 78 1011.1
20260505084516 14 270 3.2 9.7 0.00 0.00 0.00 78 1011.2
20260505084016 14 270 3.2 8.0 0.00 0.00 0.00 78 1011.2
20260505083516 14 270 3.2 8.0 0.00 0.00 0.00 78 1011.3
20260505083017 14 270 3.2 12.9 0.00 0.00 0.00 78 1011.2
20260505082516 14 270 4.8 11.3 0.00 0.00 0.00 78 1011.3
20260505082016 13 270 3.2 11.3 0.00 0.00 0.00 79 1011.2
20260505081516 13 248 3.2 9.7 0.00 0.00 0.00 79 1010.9
20260505081016 13 248 1.6 8.0 0.00 0.00 0.00 79 1010.9
20260505080516 13 270 1.6 6.4 0.00 0.00 0.00 79 1011.2
20260505080016 13 270 1.6 4.8 0.00 0.00 0.00 79 1011.2
20260505075516 13 248 1.6 8.0 0.00 0.00 0.00 79 1011.1
20260505075016 13 270 1.6 6.4 0.00 0.00 0.00 79 1011.1
20260505074516 13 270 1.6 6.4 0.00 0.00 0.00 79 1011.0
20260505074016 13 270 1.6 6.4 0.00 0.00 0.00 79 1010.8
20260505073516 13 270 1.6 8.0 0.00 0.00 0.00 79 1010.8
20260505073016 13 270 1.6 8.0 0.00 0.00 0.00 79 1010.8
20260505072516 13 270 1.6 8.0 0.00 0.00 0.00 79 1010.7
20260505072016 13 270 3.2 6.4 0.00 0.00 0.00 79 1010.8
20260505071516 13 248 1.6 4.8 0.00 0.00 0.00 79 1010.8
20260505071016 13 248 1.6 4.8 0.00 0.00 0.00 79 1010.8
20260505070924 13 248 1.6 6.4 0.00 0.00 0.00 78 1010.8
20260505070516 13 248 1.6 6.4 0.00 0.00 0.00 78 1010.8
20260505070016 13 248 1.6 4.8 0.00 0.00 0.00 78 1010.8
20260505065516 13 248 3.2 6.4 0.00 0.00 0.00 77 1010.8
20260505065016 13 270 1.6 4.8 0.00 0.00 0.00 77 1010.8
20260505064516 13 248 1.6 6.4 0.00 0.00 0.00 77 1010.8
20260505064016 14 248 1.6 4.8 0.00 0.00 0.00 76 1010.9
20260505063516 14 248 1.6 6.4 0.00 0.00 0.00 76 1010.9
20260505063016 14 248 3.2 4.8 0.00 0.00 0.00 76 1010.9
20260505062516 14 248 3.2 8.0 0.00 0.00 0.00 75 1010.9
20260505062016 14 270 1.6 4.8 0.00 0.00 0.00 75 1010.9
20260505061606 14 248 1.6 6.4 0.00 0.00 0.00 75 1010.9
20260505061516 14 248 1.6 6.4 0.00 0.00 0.00 75 1010.9
20260505061016 14 248 3.2 9.7 0.00 0.00 0.00 74 1010.8
20260505060516 14 248 1.6 9.7 0.00 0.00 0.00 74 1010.8
20260505060016 14 248 1.6 3.2 0.00 0.00 0.00 74 1010.9
20260505055516 15 248 1.6 4.8 0.00 0.00 0.00 74 1011.0
20260505055016 15 248 1.6 8.0 0.00 0.00 0.00 74 1011.0
20260505054516 15 248 1.6 8.0 0.00 0.00 0.00 73 1011.1
20260505054128 15 248 1.6 8.0 0.00 0.00 0.00 73 1011.2
20260505054016 15 248 1.6 8.0 0.00 0.00 0.00 73 1011.2
20260505053516 15 248 1.6 4.8 0.00 0.00 0.00 73 1011.2
20260505053016 15 248 3.2 12.9 0.00 0.00 0.00 73 1011.2
20260505052516 14 248 1.6 4.8 0.00 0.00 0.00 73 1011.2
20260505052048 14 270 1.6 6.4 0.00 0.00 0.00 73 1011.3
20260505052016 14 270 1.6 6.4 0.00 0.00 0.00 73 1011.3
20260505051516 14 248 1.6 8.0 0.00 0.00 0.00 73 1011.4
20260505051016 14 248 1.6 6.4 0.00 0.00 0.00 73 1011.4
20260505050516 14 248 1.6 6.4 0.00 0.00 0.00 73 1011.3
20260505041516 15 248 1.6 4.8 0.00 0.00 0.00 70 1011.4
20260505041016 15 248 1.6 4.8 0.00 0.00 0.00 70 1011.4
20260505040516 15 248 1.6 6.4 0.00 0.00 0.00 70 1011.5
20260505040149 15 0.0 4.8 0.00 0.00 0.00 69 1011.4
20260505040034 15 248 1.6 4.8 0.00 0.00 0.00 69 1011.4
20260505035516 15 248 1.6 4.8 0.00 0.00 0.00 69 1011.4
20260505035225 15 225 1.6 11.3 0.00 0.00 0.00 69 1011.4
20260505035016 15 225 1.6 11.3 0.00 0.00 0.00 69 1011.4
20260505034516 15 248 1.6 11.3 0.00 0.00 0.00 68 1011.4
20260505034016 15 0.0 4.8 0.00 0.00 0.00 68 1011.5
20260505033516 15 248 3.2 11.3 0.00 0.00 0.00 67 1011.5
20260505033016 15 248 3.2 9.7 0.00 0.00 0.00 67 1011.5
20260505032516 15 248 1.6 9.7 0.00 0.00 0.00 67 1011.5
20260505032016 15 0.0 3.2 0.00 0.00 0.00 66 1011.5
20260505031516 15 225 1.6 8.0 0.00 0.00 0.00 65 1011.5
20260505031111 16 248 1.6 8.0 0.00 0.00 0.00 65 1011.6
20260505031016 16 248 1.6 8.0 0.00 0.00 0.00 65 1011.6
20260505030516 16 248 1.6 6.4 0.00 0.00 0.00 64 1011.7
20260505030018 16 248 3.2 11.3 0.00 0.00 0.00 64 1011.7
20260505025519 16 248 1.6 8.0 0.00 0.00 0.00 63 1011.8
20260505025018 16 248 1.6 11.3 0.00 0.00 0.00 62 1011.8
20260505024518 16 248 3.2 9.7 0.00 0.00 0.00 61 1011.8
20260505024018 16 248 1.6 9.7 0.00 0.00 0.00 61 1011.8
20260505023518 16 248 1.6 6.4 0.00 0.00 0.00 60 1011.8
20260505023018 16 0.0 3.2 0.00 0.00 0.00 59 1011.8
20260505022518 17 0.0 3.2 0.00 0.00 0.00 58 1011.9
20260505022018 17 248 1.6 8.0 0.00 0.00 0.00 57 1012.0
20260505021815 17 248 1.6 6.4 0.00 0.00 0.00 57 1012.0
20260505021518 17 248 1.6 6.4 0.00 0.00 0.00 57 1012.0
20260505021018 17 248 3.2 9.7 0.00 0.00 0.00 56 1012.0
20260505020518 17 248 1.6 6.4 0.00 0.00 0.00 55 1011.9
20260505020018 17 248 1.6 14.5 0.00 0.00 0.00 55 1011.9
20260505015518 17 248 1.6 8.0 0.00 0.00 0.00 54 1011.9
20260505015018 17 248 1.6 6.4 0.00 0.00 0.00 53 1011.9
20260505014518 17 248 1.6 8.0 0.00 0.00 0.00 52 1011.9
20260505014018 17 248 1.6 11.3 0.00 0.00 0.00 51 1011.9
20260505013518 17 0.0 4.8 0.00 0.00 0.00 49 1011.9
20260505013018 18 0.0 3.2 0.00 0.00 0.00 49 1011.7
20260505012518 18 0.0 1.6 0.00 0.00 0.00 49 1011.6
20260505012018 18 248 1.6 4.8 0.00 0.00 0.00 48 1011.5
20260505011518 18 248 1.6 6.4 0.00 0.00 0.00 48 1011.5
20260505011119 18 0.0 3.2 0.00 0.00 0.00 48 1011.3
20260505011018 18 0.0 3.2 0.00 0.00 0.00 48 1011.3
20260505010602 18 0.0 4.8 0.00 0.00 0.00 47 1011.3
20260505010518 18 0.0 4.8 0.00 0.00 0.00 47 1011.3
20260505010018 18 0.0 1.6 0.00 0.00 0.00 47 1011.3
20260505005558 18 0.0 4.8 0.00 0.00 0.00 46 1011.2
20260505005518 18 0.0 4.8 0.00 0.00 0.00 46 1011.2
20260505005110 18 248 1.6 4.8 0.00 0.00 0.00 46 1011.1
20260505005018 18 248 1.6 4.8 0.00 0.00 0.00 46 1011.1
20260505004518 18 248 1.6 6.4 0.00 0.00 0.00 45 1011.1
20260505004018 19 248 1.6 3.2 0.00 0.00 0.00 45 1011.2
20260505003613 19 248 1.6 6.4 0.00 0.00 0.00 45 1011.1
20260505003517 19 248 1.6 6.4 0.00 0.00 0.00 45 1011.1
20260505003018 19 248 1.6 6.4 0.00 0.00 0.00 45 1010.9
20260505002518 19 0.0 6.4 0.00 0.00 0.00 44 1010.9
20260505002104 19 248 1.6 4.8 0.00 0.00 0.00 44 1010.9
20260505002018 19 248 1.6 4.8 0.00 0.00 0.00 44 1010.9
20260505001619 20 248 3.2 9.7 0.00 0.00 0.00 43 1010.9
20260505001518 20 248 3.2 9.7 0.00 0.00 0.00 43 1010.9
20260505001117 20 270 1.6 6.4 0.00 0.00 0.00 43 1010.9
20260505001017 20 270 1.6 6.4 0.00 0.00 0.00 43 1010.9
20260505000611 20 248 1.6 6.4 0.00 0.00 0.00 43 1010.8
20260505000518 20 248 1.6 6.4 0.00 0.00 0.00 43 1010.8
20260505000018 20 248 1.6 6.4 0.00 0.00 0.00 42 1010.7
20260504235606 20 248 1.6 8.0 0.00 0.00 0.00 42 1010.6
20260504235518 20 248 1.6 8.0 0.00 0.00 0.00 42 1010.6
20260504235116 20 270 1.6 6.4 0.00 0.00 0.00 41 1010.6
20260504235018 20 270 1.6 6.4 0.00 0.00 0.00 41 1010.6
20260504234517 20 248 3.2 8.0 0.00 0.00 0.00 41 1010.5
20260504234106 21 270 1.6 6.4 0.00 0.00 0.00 40 1010.6
20260504234017 21 270 1.6 6.4 0.00 0.00 0.00 40 1010.6
20260504233559 21 248 3.2 11.3 0.00 0.00 0.00 40 1010.4
20260504233518 21 248 3.2 11.3 0.00 0.00 0.00 40 1010.4
20260504233153 21 270 3.2 9.7 0.00 0.00 0.00 40 1010.4
20260504233018 21 270 3.2 9.7 0.00 0.00 0.00 40 1010.4
20260504232633 21 248 3.2 12.9 0.00 0.00 0.00 39 1010.3
20260504232553 21 248 3.2 12.9 0.00 0.00 0.00 39 1010.3
20260504232517 21 248 3.2 12.9 0.00 0.00 0.00 39 1010.3
20260504232017 21 248 1.6 11.3 0.00 0.00 0.00 39 1010.3
20260504231603 21 248 1.6 8.0 0.00 0.00 0.00 38 1010.3
20260504231518 21 248 1.6 8.0 0.00 0.00 0.00 38 1010.3
20260504231119 21 248 4.8 12.9 0.00 0.00 0.00 38 1010.4
20260504231018 21 248 4.8 12.9 0.00 0.00 0.00 38 1010.4
20260504230628 21 270 6.4 16.1 0.00 0.00 0.00 38 1010.3
20260504230517 21 270 6.4 16.1 0.00 0.00 0.00 38 1010.3
20260504230106 22 270 3.2 8.0 0.00 0.00 0.00 38 1010.2
20260504230018 22 270 3.2 8.0 0.00 0.00 0.00 38 1010.2
20260504225627 22 270 4.8 16.1 0.00 0.00 0.00 37 1010.1
20260504225518 22 270 4.8 16.1 0.00 0.00 0.00 37 1010.1
20260504225058 22 270 3.2 9.7 0.00 0.00 0.00 38 1010.2
20260504225017 22 270 3.2 9.7 0.00 0.00 0.00 38 1010.2
20260504224517 22 248 3.2 12.9 0.00 0.00 0.00 38 1010.2
20260504224102 21 270 3.2 9.7 0.00 0.00 0.00 38 1010.2
20260504224018 21 270 3.2 9.7 0.00 0.00 0.00 38 1010.2
20260504223557 22 248 6.4 16.1 0.00 0.00 0.00 37 1010.2
20260504223517 22 248 6.4 16.1 0.00 0.00 0.00 37 1010.2
20260504223017 22 248 3.2 9.7 0.00 0.00 0.00 37 1010.1
20260504222556 22 293 1.6 6.4 0.00 0.00 0.00 38 1010.1
20260504222518 22 293 1.6 6.4 0.00 0.00 0.00 38 1010.1
20260504222058 22 270 4.8 16.1 0.00 0.00 0.00 37 1010.1
20260504222018 22 270 4.8 16.1 0.00 0.00 0.00 37 1010.1
20260504221556 22 270 6.4 14.5 0.00 0.00 0.00 38 1010.1
20260504221517 22 270 6.4 14.5 0.00 0.00 0.00 38 1010.1
20260504221048 22 270 4.8 20.9 0.00 0.00 0.00 38 1010.2
20260504221017 22 270 4.8 20.9 0.00 0.00 0.00 38 1010.2
20260504220553 22 270 4.8 11.3 0.00 0.00 0.00 36 1010.3
20260504220517 22 270 4.8 11.3 0.00 0.00 0.00 36 1010.3
20260504220149 22 248 3.2 16.1 0.00 0.00 0.00 37 1010.3
20260504220037 22 270 4.8 17.7 0.00 0.00 0.00 36 1010.4
20260504215631 22 270 4.8 17.7 0.00 0.00 0.00 36 1010.4
20260504215517 22 270 4.8 17.7 0.00 0.00 0.00 36 1010.4
20260504215056 22 270 3.2 9.7 0.00 0.00 0.00 37 1010.4
20260504215017 22 270 3.2 9.7 0.00 0.00 0.00 37 1010.4
20260504214517 22 270 3.2 9.7 0.00 0.00 0.00 37 1010.4
20260504214018 22 270 8.0 19.3 0.00 0.00 0.00 36 1010.5
20260504213555 22 248 6.4 17.7 0.00 0.00 0.00 36 1010.4
20260504213517 22 248 6.4 17.7 0.00 0.00 0.00 36 1010.4
20260504213017 22 270 3.2 11.3 0.00 0.00 0.00 37 1010.5
20260504212553 22 270 4.8 9.7 0.00 0.00 0.00 36 1010.4
20260504212517 22 270 4.8 9.7 0.00 0.00 0.00 36 1010.4
20260504212018 22 248 4.8 9.7 0.00 0.00 0.00 36 1010.5
20260504211603 22 270 4.8 11.3 0.00 0.00 0.00 37 1010.5
20260504211517 22 270 4.8 11.3 0.00 0.00 0.00 37 1010.5
20260504211106 22 248 4.8 12.9 0.00 0.00 0.00 36 1010.5
20260504211017 22 248 4.8 12.9 0.00 0.00 0.00 36 1010.5
20260504210605 22 270 4.8 14.5 0.00 0.00 0.00 36 1010.5
20260504210518 22 270 4.8 14.5 0.00 0.00 0.00 36 1010.5
20260504210057 22 248 8.0 29.0 0.00 0.00 0.00 35 1010.6
20260504210017 22 248 8.0 29.0 0.00 0.00 0.00 35 1010.6
20260504205645 22 248 6.4 17.7 0.00 0.00 0.00 35 1010.5
20260504205517 22 248 6.4 17.7 0.00 0.00 0.00 35 1010.5
20260504205054 22 270 1.6 8.0 0.00 0.00 0.00 38 1010.5
20260504205017 22 270 1.6 8.0 0.00 0.00 0.00 38 1010.5
20260504204517 22 248 6.4 20.9 0.00 0.00 0.00 36 1010.5
20260504204018 22 248 6.4 17.7 0.00 0.00 0.00 35 1010.6
20260504203558 22 270 3.2 14.5 0.00 0.00 0.00 36 1010.6
20260504203517 22 270 3.2 14.5 0.00 0.00 0.00 36 1010.6
20260504203138 22 270 4.8 11.3 0.00 0.00 0.00 37 1010.6
20260504203017 22 270 4.8 11.3 0.00 0.00 0.00 37 1010.6
20260504202700 22 270 4.8 19.3 0.00 0.00 0.00 36 1010.6
20260504202517 22 270 4.8 19.3 0.00 0.00 0.00 36 1010.6
20260504202102 22 248 4.8 14.5 0.00 0.00 0.00 36 1010.5
20260504202018 22 248 4.8 14.5 0.00 0.00 0.00 36 1010.5
20260504201517 22 248 4.8 11.3 0.00 0.00 0.00 37 1010.4
20260504201114 22 248 6.4 14.5 0.00 0.00 0.00 35 1010.6
20260504201017 22 248 6.4 14.5 0.00 0.00 0.00 35 1010.6
20260504200606 22 270 4.8 9.7 0.00 0.00 0.00 35 1010.5
20260504200517 22 270 4.8 9.7 0.00 0.00 0.00 35 1010.5
20260504200106 22 270 6.4 16.1 0.00 0.00 0.00 36 1010.7
20260504200017 22 270 6.4 16.1 0.00 0.00 0.00 36 1010.7
20260504195559 22 270 6.4 16.1 0.00 0.00 0.00 37 1010.6
20260504195517 22 270 6.4 16.1 0.00 0.00 0.00 37 1010.6
20260504195103 22 270 8.0 29.0 0.00 0.00 0.00 35 1010.7
20260504195017 22 270 8.0 29.0 0.00 0.00 0.00 35 1010.7
20260504194605 22 270 3.2 14.5 0.00 0.00 0.00 36 1010.7
20260504194517 22 270 3.2 14.5 0.00 0.00 0.00 36 1010.7
20260504194107 22 270 4.8 14.5 0.00 0.00 0.00 36 1010.7
20260504194017 22 270 4.8 14.5 0.00 0.00 0.00 36 1010.7
20260504193630 22 270 8.0 16.1 0.00 0.00 0.00 35 1010.6
20260504193517 22 270 8.0 16.1 0.00 0.00 0.00 35 1010.6
20260504193018 22 248 4.8 12.9 0.00 0.00 0.00 36 1010.7
20260504192517 22 270 8.0 17.7 0.00 0.00 0.00 36 1010.7
20260504192121 22 248 6.4 16.1 0.00 0.00 0.00 37 1010.8
20260504192017 22 248 6.4 16.1 0.00 0.00 0.00 37 1010.8
20260504191559 22 248 8.0 17.7 0.00 0.00 0.00 36 1010.8
20260504191517 22 248 8.0 17.7 0.00 0.00 0.00 36 1010.8
20260504191117 22 270 6.4 14.5 0.00 0.00 0.00 36 1010.9
20260504191017 22 270 6.4 14.5 0.00 0.00 0.00 36 1010.9
20260504190517 22 270 4.8 12.9 0.00 0.00 0.00 36 1011.1
20260504190017 21 248 4.8 12.9 0.00 0.00 0.00 38 1011.1
20260504185558 21 270 4.8 17.7 0.00 0.00 0.00 36 1011.3
20260504185517 21 270 4.8 17.7 0.00 0.00 0.00 36 1011.3
20260504185114 21 270 4.8 12.9 0.00 0.00 0.00 37 1011.5
20260504185017 21 270 4.8 12.9 0.00 0.00 0.00 37 1011.5
20260504184517 21 248 6.4 14.5 0.00 0.00 0.00 38 1011.4
20260504184119 21 248 8.0 20.9 0.00 0.00 0.00 37 1011.4
20260504184017 21 248 8.0 20.9 0.00 0.00 0.00 37 1011.4
20260504183637 21 270 4.8 12.9 0.00 0.00 0.00 39 1011.5
20260504183517 21 270 4.8 12.9 0.00 0.00 0.00 39 1011.5
20260504183150 21 270 6.4 17.7 0.00 0.00 0.00 37 1011.7
20260504183017 21 270 6.4 17.7 0.00 0.00 0.00 37 1011.7
20260504182517 21 248 6.4 20.9 0.00 0.00 0.00 38 1011.7
20260504182017 21 270 4.8 9.7 0.00 0.00 0.00 38 1011.8
20260504181603 21 248 4.8 12.9 0.00 0.00 0.00 40 1011.7
20260504181517 21 248 4.8 12.9 0.00 0.00 0.00 40 1011.7
20260504181017 21 248 6.4 19.3 0.00 0.00 0.00 38 1011.9